GFSCGP_700_temp_036.txt.gz
Temp
16 16 17 17 17 17 17 18 19 19 19 19 19 19 18 17 17 16 16 16 15 15 13 13 13 13 12 10 9 9 9 10 9 9 8 8 8 9 9 9 9 9 8 8
15 16 17 17 17 17 18 18 18 19 18 18 19 19 19 18 17 17 17 16 15 15 14 14 13 13 11 10 10 10 10 10 9 10 9 8 9 9 9 9 9 9 8 8
15 16 16 16 17 17 17 18 18 18 18 18 18 18 18 18 17 17 17 16 15 15 15 14 14 13 12 12 11 10 10 10 9 9 9 10 9 9 10 10 9 9 8 8
15 16 17 17 17 17 17 18 17 18 18 18 18 17 18 18 18 17 17 16 16 16 15 15 13 13 12 12 11 11 10 10 9 9 9 9 10 10 10 9 9 8 8 8
16 16 16 17 17 17 17 17 17 17 17 17 18 17 18 17 17 17 17 16 16 15 15 14 13 13 12 12 11 11 11 10 9 9 9 9 9 9 9 9 9 8 8 8
15 16 16 17 17 17 17 17 17 17 17 16 17 17 17 17 17 17 16 16 16 15 15 14 13 13 13 12 12 11 11 10 9 9 9 9 9 9 9 9 8 9 8 8
15 16 16 16 17 17 17 17 16 14 13 13 17 16 17 17 17 16 16 16 16 15 15 14 13 13 13 12 11 11 10 10 10 9 9 9 9 9 9 9 9 9 8 9
15 16 16 16 16 17 17 17 16 13 11 15 17 17 17 17 16 16 16 16 15 15 15 14 13 13 13 12 11 11 10 10 10 10 10 9 8 9 9 9 9 9 9 8
15 15 16 16 16 17 17 16 17 16 15 15 16 16 16 16 16 16 15 15 15 15 15 14 13 12 12 12 11 11 10 9 9 9 9 9 9 9 9 9 9 9 9 8
15 15 16 16 17 17 17 17 17 16 13 14 14 15 16 15 16 16 14 15 14 14 14 14 13 12 12 12 11 10 10 9 8 8 9 9 9 9 9 9 9 9 9 8
15 15 17 16 17 17 17 17 16 16 16 12 10 14 15 15 16 15 14 14 14 13 13 13 13 12 12 11 10 9 9 8 7 8 9 9 9 9 9 9 9 9 9 8
15 15 15 16 17 16 16 17 17 16 16 16 15 14 16 15 16 16 15 14 15 14 14 12 11 12 12 11 11 10 8 7 7 8 8 9 9 9 9 8 8 8 8 8
16 15 16 16 16 16 16 16 16 17 17 16 15 13 15 15 15 15 16 15 15 14 14 13 11 12 11 11 9 9 7 6 8 8 8 9 9 9 8 8 8 8 8 8
16 16 16 16 16 15 15 16 15 16 16 16 16 15 14 15 15 15 15 15 14 14 13 12 11 11 11 11 10 9 9 8 9 9 8 9 9 8 8 8 8 8 8 8
15 15 15 15 15 15 15 16 15 15 16 16 16 16 16 15 13 12 13 13 13 13 13 13 11 11 11 10 11 10 8 9 9 9 9 8 8 8 8 8 8 8 7 7
14 14 15 15 15 15 15 16 16 16 15 15 15 15 13 11 12 13 13 13 13 12 11 11 11 11 10 9 10 10 8 9 9 9 8 9 8 8 8 8 8 7 7 7
13 14 14 14 15 15 15 15 15 15 15 14 15 15 13 11 12 13 13 13 12 12 12 11 11 10 10 9 10 10 8 9 9 9 9 9 8 8 7 8 8 7 7 7
12 13 13 13 13 11 15 14 13 14 13 13 14 13 12 13 13 13 13 13 12 13 12 12 12 10 10 10 10 9 8 8 9 9 8 9 8 7 7 7 7 7 7 6
12 12 12 12 12 13 13 13 13 13 12 11 13 12 12 12 11 12 13 13 12 12 13 12 10 10 11 10 8 8 8 7 7 8 8 6 7 8 7 7 7 7 7 7
11 11 11 11 11 10 12 13 12 12 11 12 12 12 10 11 10 11 12 12 12 12 11 10 11 10 9 8 8 8 7 7 7 8 7 8 8 7 7 7 7 7 7 7
11 11 11 11 11 11 12 12 12 12 12 12 12 12 11 12 12 10 11 12 12 11 10 10 11 10 10 9 8 8 8 7 7 8 7 8 8 7 7 7 7 7 7 7
10 10 11 11 11 10 11 11 11 12 12 12 12 12 12 11 12 12 11 10 11 11 10 10 10 9 9 9 8 8 7 7 8 8 7 7 7 7 7 7 7 7 7 6
10 10 11 11 11 11 10 10 10 10 10 10 11 11 11 11 11 11 10 10 11 11 11 10 10 9 9 9 9 9 8 8 8 8 8 8 8 8 7 7 7 7 7 6
8 9 10 10 10 9 9 9 9 9 9 9 10 10 10 10 10 10 10 10 10 10 10 10 10 10 9 9 9 9 9 9 8 8 8 8 8 8 7 7 7 7 7 6
7 9 8 9 9 8 8 8 8 8 8 9 8 8 8 9 9 10 9 9 10 10 10 9 9 9 9 9 9 9 9 9 8 8 8 8 7 7 7 7 7 7 7 6
6 7 7 7 7 7 7 7 8 7 8 8 8 7 7 8 9 9 9 9 9 9 9 9 9 9 9 9 8 8 8 8 8 7 7 7 7 6 7 7 7 6 5 5

GFSCGP_700_temp_042.txt.gz
Temp
16 16 17 17 16 16 16 17 17 17 17 18 18 18 17 17 17 17 17 16 16 14 14 13 12 12 12 11 10 10 9 9 9 8 8 7 7 7 8 7 7 7 8 8
16 16 16 16 16 16 16 17 17 17 17 17 18 17 17 17 18 18 17 16 16 15 14 13 13 12 12 11 11 10 9 9 9 8 8 7 7 8 8 8 7 8 8 8
15 15 16 16 16 16 16 16 17 17 17 17 17 18 17 17 18 18 18 16 15 15 14 13 13 12 12 11 11 11 10 10 10 9 9 9 9 9 8 8 8 8 8 8
15 15 15 15 16 16 16 16 16 17 17 17 17 17 17 18 17 18 18 17 16 15 14 13 12 12 12 11 11 11 10 10 10 10 10 9 9 9 8 8 8 8 8 8
14 15 15 16 16 16 16 16 16 16 16 17 16 16 17 17 17 17 17 17 16 15 14 13 12 12 12 11 11 11 11 10 10 9 9 10 9 9 9 9 9 8 8 8
14 14 15 16 16 16 16 16 16 16 16 16 16 15 17 17 17 17 17 16 15 15 14 13 13 12 12 12 11 11 11 11 10 10 9 9 9 9 9 9 9 9 9 8
14 15 15 15 16 16 16 16 15 14 11 12 15 15 17 16 16 16 16 16 15 15 14 13 13 12 12 11 11 11 11 11 10 10 9 9 9 9 9 9 9 9 9 8
14 15 15 15 16 16 16 16 15 12 9 13 15 16 17 16 16 16 16 16 15 15 14 13 13 13 12 11 11 11 11 10 10 10 10 9 10 9 9 9 9 9 8 8
14 14 15 15 15 16 16 16 16 16 13 13 15 15 17 17 16 16 16 16 16 15 15 14 13 13 12 11 11 11 11 10 10 10 10 10 9 9 9 9 8 8 8 8
14 14 15 15 15 16 16 16 15 15 11 12 14 15 16 16 16 16 16 15 15 15 15 14 13 13 12 11 11 11 11 10 9 9 9 9 9 9 9 8 8 8 8 8
14 14 14 15 15 16 16 16 15 15 15 11 9 15 16 16 15 15 16 16 15 15 15 13 13 12 11 11 11 11 10 10 8 8 7 8 9 9 8 8 8 8 8 7
14 14 14 15 15 15 15 16 16 16 14 14 13 16 16 16 16 16 16 15 15 15 14 14 13 12 11 10 10 11 11 10 8 6 6 8 8 8 8 8 8 8 8 7
14 14 13 14 15 15 15 16 16 16 15 15 13 16 16 16 16 16 15 15 15 15 14 13 12 11 11 10 10 11 10 10 7 7 7 9 8 8 8 7 7 7 7 7
14 14 14 14 15 15 15 15 15 16 15 15 15 16 16 16 16 15 15 15 15 14 13 13 12 11 10 10 10 10 10 9 9 8 9 9 8 8 7 7 7 7 7 7
14 14 14 14 15 15 15 15 15 15 15 15 15 15 16 16 16 16 15 14 14 14 13 13 12 11 10 10 9 9 9 9 9 8 8 9 8 7 7 7 7 6 6 6
14 14 14 14 14 14 14 15 15 15 15 15 15 15 16 16 16 16 14 14 13 13 13 12 11 10 10 9 9 9 8 8 9 9 8 8 7 7 7 6 6 6 6 6
13 14 14 13 13 13 13 14 14 15 15 14 15 15 15 16 15 14 13 13 13 13 12 12 11 9 9 9 9 9 8 8 8 8 8 8 7 8 7 6 6 6 6 6
13 13 13 12 13 11 13 13 13 13 14 14 14 14 15 15 15 14 13 13 12 12 11 11 11 10 10 10 9 10 9 8 8 8 7 7 7 7 7 5 5 6 5 6
12 13 12 12 13 12 13 13 13 13 13 13 14 14 14 14 13 13 12 12 12 12 11 11 10 10 10 10 10 9 8 8 8 7 7 6 6 6 6 5 5 5 5 5
11 12 12 11 11 10 13 13 12 12 12 13 13 13 13 13 12 12 12 11 11 11 10 10 10 10 10 10 10 9 8 8 7 7 7 7 6 6 6 6 5 5 5 5
10 10 11 11 11 11 11 11 12 12 12 12 12 12 12 12 11 10 10 10 10 10 9 10 10 10 9 9 9 8 8 8 8 7 7 7 6 6 6 6 6 6 5 5
10 10 10 10 10 10 11 11 11 11 12 12 12 12 12 12 11 10 10 10 10 10 10 10 10 9 9 9 9 8 8 8 8 7 7 7 7 7 7 6 6 6 6 5
8 9 9 10 10 11 11 10 11 10 10 11 11 10 11 10 10 10 11 11 10 10 10 10 10 10 10 9 9 9 8 7 7 8 7 7 7 7 7 6 6 6 6 5
7 8 8 9 9 10 10 9 10 10 10 10 10 10 10 9 9 10 10 11 11 10 10 10 10 10 10 9 9 9 8 8 8 8 8 8 8 8 7 7 6 6 5 5
6 7 7 8 8 8 9 9 9 9 9 9 9 9 9 9 10 10 11 11 10 10 10 10 9 9 9 9 9 8 8 8 8 8 8 8 8 8 7 7 6 6 5 4
5 5 6 7 8 8 8 8 8 8 8 8 9 9 9 9 10 10 9 9 9 9 9 9 9 9 9 8 8 8 8 8 8 8 7 7 7 7 6 6 6 5 5 4

GFSCGP_700_temp_045.txt.gz
Temp
16 16 16 16 16 16 16 17 17 17 17 17 17 17 17 18 18 18 17 16 15 13 14 13 13 12 11 11 10 9 9 9 8 8 9 7 7 7 7 7 8 8 8 8
15 15 16 16 16 16 16 17 17 17 17 17 17 17 17 18 18 17 17 16 15 14 14 13 13 12 11 11 10 10 9 9 9 9 9 8 7 7 8 7 7 7 8 8
15 15 15 15 16 16 16 16 16 17 17 17 17 17 17 17 18 17 17 16 15 14 13 13 12 12 11 11 11 11 10 10 9 9 9 9 8 9 8 8 7 8 8 8
15 14 15 15 16 16 16 16 16 16 17 17 17 18 17 17 17 17 17 17 16 14 14 13 13 12 11 11 11 11 11 10 10 10 9 9 8 8 9 8 8 8 7 8
14 14 14 15 16 16 16 16 16 16 16 16 16 17 17 17 17 17 17 17 16 15 14 13 13 12 11 11 11 11 11 11 10 10 10 10 9 9 9 8 8 8 8 8
14 14 15 15 16 16 16 16 16 16 16 17 15 15 17 17 17 17 17 16 16 15 14 13 13 12 11 11 11 11 11 11 10 10 10 9 9 9 9 9 8 8 8 8
14 14 15 15 15 16 16 16 16 16 16 17 15 15 17 16 17 16 16 16 16 15 14 13 13 12 12 11 11 11 11 11 10 10 9 9 9 9 9 9 9 9 9 8
13 14 15 15 15 16 16 16 16 15 16 16 15 16 17 16 17 16 16 16 16 15 14 13 12 12 11 11 11 11 11 11 10 10 9 8 9 9 9 9 9 9 9 8
14 14 15 15 15 15 15 15 16 16 14 14 15 16 17 17 17 16 16 16 15 15 14 13 12 11 11 11 11 11 11 10 10 9 8 7 7 8 9 9 9 9 8 8
14 14 15 15 15 15 16 16 15 15 15 15 15 15 16 17 16 16 16 16 15 15 14 13 12 11 11 11 11 10 10 10 9 9 7 6 6 8 8 9 9 9 8 8
13 13 14 14 15 15 15 15 15 15 15 16 16 16 16 16 16 16 16 16 15 14 15 14 12 11 11 11 11 10 11 10 9 8 6 6 6 8 8 9 9 8 8 8
14 14 13 14 14 14 15 15 15 16 14 15 14 16 16 16 16 16 15 15 15 15 14 13 12 12 11 10 10 10 10 10 8 6 6 6 7 8 8 8 8 8 8 8
14 13 13 14 14 14 14 15 16 16 16 15 16 16 16 16 16 16 16 15 15 15 14 13 12 11 10 10 10 10 10 10 8 7 7 6 7 7 7 8 8 8 7 7
14 14 14 14 15 15 15 15 16 16 15 15 15 16 16 16 16 16 16 15 15 14 14 13 12 11 11 10 10 10 10 10 9 8 8 7 7 7 7 8 8 7 7 7
14 14 14 14 14 14 15 15 15 16 16 16 15 16 15 15 15 16 16 15 14 14 13 13 12 11 11 10 9 10 9 10 9 9 8 7 7 7 7 7 7 7 7 7
13 14 14 14 14 14 14 15 15 15 15 15 15 15 15 15 15 15 15 14 13 13 13 12 12 11 10 10 10 10 10 9 9 9 9 8 8 7 7 7 7 7 7 7
13 13 14 13 14 14 13 14 14 15 15 15 15 15 15 15 15 15 14 13 13 13 13 12 11 10 10 10 10 9 9 9 8 8 8 7 7 7 6 6 7 7 7 7
12 13 13 12 12 13 14 14 14 14 14 14 14 14 14 14 14 14 13 12 12 12 12 12 11 10 10 10 10 9 8 8 8 7 7 6 6 6 6 5 6 6 6 6
12 12 12 11 12 12 13 13 13 13 13 13 13 14 14 14 13 13 12 12 12 11 12 11 11 10 10 10 9 9 8 8 7 7 6 6 5 5 5 5 5 5 5 6
12 12 13 12 12 13 12 12 12 12 13 13 13 13 13 13 12 12 12 12 12 12 11 11 11 11 10 9 9 9 8 8 8 8 7 7 6 6 5 5 5 6 5 5
11 11 12 12 11 12 12 12 12 12 12 12 12 12 12 12 12 12 12 11 11 11 11 10 10 10 10 10 10 9 8 8 8 7 7 7 6 6 6 6 5 5 5 6
10 10 10 10 11 11 11 11 11 12 12 12 12 12 12 12 12 12 12 10 10 11 10 10 10 10 9 10 10 9 9 8 8 7 7 6 6 6 6 6 6 5 6 5
9 9 10 10 10 10 11 11 11 11 11 11 11 11 11 11 11 11 10 10 10 10 10 10 10 10 10 10 9 9 9 8 8 8 7 7 7 7 7 7 6 6 6 6
8 8 9 9 9 9 10 10 10 10 10 10 10 10 10 10 10 10 10 10 10 10 10 10 10 10 9 9 10 9 9 8 8 8 8 8 8 7 7 7 6 6 6 6
7 7 8 8 8 9 9 9 9 9 9 9 9 9 9 9 9 9 9 9 9 9 9 9 10 10 9 9 9 9 8 8 8 8 8 8 8 8 8 7 7 6 6 5
6 6 6 7 7 8 8 8 8 8 8 8 8 8 8 8 8 8 8 9 9 9 9 9 9 9 9 9 8 8 8 8 8 8 8 7 7 7 7 7 6 6 4 5

GFSCGP_700_temp_048.txt.gz
Temp
15 15 16 17 17 18 17 17 18 18 17 17 18 18 18 18 18 15 15 15 14 14 14 13 13 12 12 11 11 11 10 10 9 9 8 8 7 7 7 7 7 8 8 8
15 16 17 16 16 16 17 17 18 17 17 17 17 18 17 18 18 17 14 15 15 14 14 13 13 12 12 11 12 11 10 10 9 9 8 8 8 8 8 8 8 8 8 8
16 16 15 16 16 16 17 17 18 18 17 17 17 18 18 17 18 18 17 16 15 14 14 13 13 12 11 11 12 11 10 10 10 9 9 8 9 9 8 8 8 8 8 8
15 15 15 15 16 16 18 17 17 17 18 19 18 20 18 18 17 17 17 17 15 14 14 13 13 12 12 11 11 11 10 10 10 9 9 8 9 8 8 8 9 9 8 8
16 14 15 15 16 16 18 17 17 17 18 18 18 18 19 18 17 16 17 17 17 15 14 13 12 12 12 12 11 11 10 10 10 10 9 9 8 8 8 9 9 9 8 8
14 14 14 16 15 16 16 16 16 16 18 19 18 18 19 19 17 16 16 16 16 16 14 13 13 12 12 11 11 11 11 10 10 10 9 9 9 8 8 8 8 8 9 9
14 14 15 15 15 16 16 17 18 19 19 19 16 17 19 17 17 17 17 16 16 15 14 13 13 12 12 11 11 11 11 11 10 10 9 9 9 8 8 8 8 9 9 9
15 16 15 15 16 16 16 17 18 18 19 19 16 18 18 17 17 17 16 16 16 15 14 14 13 12 12 12 11 11 11 11 10 10 9 8 8 8 8 8 8 9 9 9
16 16 15 15 15 16 16 16 17 17 17 18 19 17 17 17 17 16 16 15 16 15 15 14 13 12 12 12 11 11 11 11 10 9 9 8 8 8 8 8 8 8 8 9
15 16 15 15 15 15 16 16 16 17 18 18 18 17 18 17 16 16 16 15 15 15 15 15 13 12 12 12 11 10 11 11 10 9 8 8 7 7 8 8 8 8 8 8
14 14 15 14 15 16 15 16 16 17 17 19 18 18 17 16 16 16 16 16 15 15 15 14 13 12 12 11 11 10 11 11 10 9 7 7 6 7 7 8 8 8 8 8
14 14 15 16 15 15 15 16 16 17 16 17 17 18 16 16 16 16 16 16 15 15 15 14 13 13 12 11 11 10 11 10 10 9 7 6 6 7 7 7 7 7 8 8
14 14 15 15 15 14 15 15 15 16 16 17 17 18 16 16 16 16 16 15 15 14 14 14 13 12 12 11 10 10 10 10 10 10 8 8 7 7 8 7 7 7 7 8
13 14 14 17 17 16 15 15 15 15 17 17 17 17 16 16 16 16 16 15 15 14 14 13 13 12 12 11 10 10 10 10 9 9 8 8 7 8 8 7 7 7 7 7
12 13 14 15 15 15 16 15 15 15 16 17 17 17 16 16 16 16 15 15 14 14 14 14 13 13 11 10 10 10 10 10 9 8 8 8 8 8 7 7 7 7 7 7
13 13 14 14 15 15 15 15 14 14 15 15 16 16 16 16 15 15 15 15 13 13 13 13 13 12 11 10 10 10 9 9 8 8 8 7 7 7 7 7 7 7 7 7
11 13 13 15 14 15 15 15 15 15 15 16 16 15 15 15 15 15 15 14 13 13 13 13 12 11 11 10 10 9 9 9 8 8 8 7 7 7 6 6 6 6 6 6
12 12 13 15 13 15 15 15 15 15 15 14 14 15 14 14 14 14 14 13 12 13 13 13 12 11 10 10 10 9 9 9 8 8 7 7 6 5 5 5 5 5 5 5
12 12 13 13 14 15 13 14 14 13 14 14 13 14 14 14 14 14 13 12 12 12 13 12 12 11 10 10 9 9 9 8 8 8 7 6 6 5 5 5 5 5 5 6
12 12 13 13 15 15 14 12 13 13 14 13 14 13 13 12 12 12 12 12 12 12 12 11 11 11 10 10 9 9 9 8 8 8 7 7 7 6 6 5 5 5 5 6
12 12 13 14 14 12 12 12 13 13 12 13 13 12 12 12 12 12 12 12 12 12 11 11 11 11 10 9 9 9 9 9 8 8 7 7 6 6 6 6 5 6 6 5
11 12 13 12 13 13 12 12 12 12 12 12 12 12 12 12 12 11 11 11 11 11 11 10 11 11 10 9 9 9 9 8 8 8 7 7 6 6 6 6 6 5 6 6
10 10 11 11 11 11 11 12 12 12 12 12 12 12 12 11 11 11 10 10 10 10 10 10 10 10 10 10 9 9 9 9 9 8 8 7 7 7 6 6 7 7 7 6
9 9 9 9 10 10 10 11 11 11 11 11 11 11 11 10 10 10 10 10 10 10 10 9 10 10 10 10 10 9 9 9 8 8 8 7 7 7 7 7 7 7 7 6
7 8 8 7 9 9 9 10 10 10 9 10 10 10 10 9 9 9 9 9 9 9 9 9 9 9 9 9 9 9 9 9 8 8 8 8 8 7 7 8 8 8 7 6
6 6 7 8 7 8 8 9 9 8 8 9 9 9 8 8 8 8 8 8 9 9 9 9 9 9 9 9 9 9 9 8 8 8 8 8 8 8 8 7 8 7 7 6